DEVICE NETWORK
Gateway Status
13 ESP · realtime ~1s · history 60s
Weather
WS-MOD-01
ONLINE
Actuator
ACT-MOD-01
OFFLINE
Mainboard L3
MB-L3-01
ONLINE
Mainboard L5
MB-L5-01
ONLINE
Remote AC
AC-REMOTE-01
ONLINE
PZEM L3-01
PWR-L3-01
OFFLINE
PZEM L3-02
PWR-L3-02
OFFLINE
PZEM L3-03
PWR-L3-03
OFFLINE
PZEM L3-04
PWR-L3-04
OFFLINE
PZEM L5-01
PWR-L5-01
ONLINE
PZEM L5-02
PWR-L5-02
ONLINE
PZEM L5-03
PWR-L5-03
OFFLINE
PZEM L5-04
PWR-L5-04
OFFLINE
REPORT FILTER
DATABASE HISTORY
Periode & Sensor
REPORT RESULT
Data Sensor
02/09/2026 — 02/09/2026
EXPORT CSV
| NO | TANGGAL | WAKTU | DEVICE | CHANNEL | SENSOR | VALUE | UNIT |
|---|---|---|---|---|---|---|---|
| 12101 | 02/09/2026 | 14:54:35 | MB-L5-01Mainboard Lantai 5 | L5-BGT-03 | Black Globe Temperature 3 | 29.90 | °C |
| 12102 | 02/09/2026 | 14:54:35 | MB-L5-01Mainboard Lantai 5 | L5-LUX-03 | Illuminance / LUX 3 | 178.30 | lux |
| 12103 | 02/09/2026 | 14:54:35 | MB-L5-01Mainboard Lantai 5 | L5-BGT-02 | Black Globe Temperature 2 | 29.80 | °C |
| 12104 | 02/09/2026 | 14:54:34 | MB-L3-01Mainboard Lantai 3 | L3-AI-02 | Analog Input 2 | 3.12 | V |
| 12105 | 02/09/2026 | 14:54:34 | MB-L3-01Mainboard Lantai 3 | L3-LUX-04 | Illuminance / LUX 4 | 95.10 | lux |
| 12106 | 02/09/2026 | 14:54:34 | MB-L3-01Mainboard Lantai 3 | L3-HFT-02 | Heat Flow Temperature 2 | 29.10 | °C |
| 12107 | 02/09/2026 | 14:54:34 | MB-L3-01Mainboard Lantai 3 | L3-SHT-01-T | SHT20 1 Temperature | 32.20 | °C |
| 12108 | 02/09/2026 | 14:54:34 | MB-L3-01Mainboard Lantai 3 | L3-LUX-02 | Illuminance / LUX 2 | 42.00 | lux |
| 12109 | 02/09/2026 | 14:54:34 | MB-L3-01Mainboard Lantai 3 | L3-SHT-01-RH | SHT20 1 Humidity | 48.60 | %RH |
| 12110 | 02/09/2026 | 14:54:34 | MB-L3-01Mainboard Lantai 3 | L3-AI-03 | Analog Input 3 | 3.12 | V |
| 12111 | 02/09/2026 | 14:54:34 | MB-L3-01Mainboard Lantai 3 | L3-SHT-02-RH | SHT20 2 Humidity | 48.30 | %RH |
| 12112 | 02/09/2026 | 14:54:34 | MB-L3-01Mainboard Lantai 3 | L3-BGT-01 | Black Globe Temperature 1 | 29.70 | °C |
| 12113 | 02/09/2026 | 14:54:34 | MB-L3-01Mainboard Lantai 3 | L3-LUX-01 | Illuminance / LUX 1 | 32.90 | lux |
| 12114 | 02/09/2026 | 14:54:34 | MB-L3-01Mainboard Lantai 3 | L3-RAD-02 | Radiation 2 | 2.00 | W/m² |
| 12115 | 02/09/2026 | 14:54:34 | MB-L3-01Mainboard Lantai 3 | L3-LUX-05 | Illuminance / LUX 5 | 47.30 | lux |
| 12116 | 02/09/2026 | 14:54:34 | MB-L3-01Mainboard Lantai 3 | L3-LUX-03 | Illuminance / LUX 3 | 136.60 | lux |
| 12117 | 02/09/2026 | 14:54:34 | MB-L3-01Mainboard Lantai 3 | L3-AI-04 | Analog Input 4 | 3.12 | V |
| 12118 | 02/09/2026 | 14:54:34 | MB-L3-01Mainboard Lantai 3 | L3-BGT-02 | Black Globe Temperature 2 | 29.90 | °C |
| 12119 | 02/09/2026 | 14:54:34 | MB-L3-01Mainboard Lantai 3 | L3-RAD-01 | Radiation 1 | 2.00 | W/m² |
| 12120 | 02/09/2026 | 14:54:34 | MB-L3-01Mainboard Lantai 3 | L3-SHT-03-RH | SHT20 3 Humidity | 49.00 | %RH |
| 12121 | 02/09/2026 | 14:54:34 | MB-L3-01Mainboard Lantai 3 | L3-ST-01 | Surface Temperature 1 | 29.90 | °C |
| 12122 | 02/09/2026 | 14:54:34 | MB-L3-01Mainboard Lantai 3 | L3-AI-05 | Analog Input 5 | 3.12 | V |
| 12123 | 02/09/2026 | 14:54:34 | MB-L3-01Mainboard Lantai 3 | L3-SHT-03-T | SHT20 3 Temperature | 31.80 | °C |
| 12124 | 02/09/2026 | 14:54:34 | MB-L3-01Mainboard Lantai 3 | L3-SHT-02-T | SHT20 2 Temperature | 32.10 | °C |
| 12125 | 02/09/2026 | 14:54:34 | MB-L3-01Mainboard Lantai 3 | L3-BGT-03 | Black Globe Temperature 3 | 29.30 | °C |
| 12126 | 02/09/2026 | 14:54:34 | MB-L3-01Mainboard Lantai 3 | L3-ST-02 | Surface Temperature 2 | 30.20 | °C |
| 12127 | 02/09/2026 | 14:54:34 | MB-L3-01Mainboard Lantai 3 | L3-AI-06 | Analog Input 6 | 3.12 | V |
| 12128 | 02/09/2026 | 14:54:34 | MB-L3-01Mainboard Lantai 3 | L3-LUX-06 | Illuminance / LUX 6 | 33.50 | lux |
| 12129 | 02/09/2026 | 14:54:34 | MB-L3-01Mainboard Lantai 3 | L3-AI-01 | Analog Input 1 | 3.12 | V |
| 12130 | 02/09/2026 | 14:54:34 | MB-L3-01Mainboard Lantai 3 | L3-HFT-01 | Heat Flow Temperature 1 | 29.60 | °C |
| 12131 | 02/09/2026 | 14:54:33 | MB-L5-01Mainboard Lantai 5 | L5-LUX-02 | Illuminance / LUX 2 | 154.00 | lux |
| 12132 | 02/09/2026 | 14:54:33 | MB-L5-01Mainboard Lantai 5 | L5-ST-01 | Surface Temperature 1 | 30.20 | °C |
| 12133 | 02/09/2026 | 14:54:33 | MB-L5-01Mainboard Lantai 5 | L5-RAD-02 | Radiation 2 | 2.00 | W/m² |
| 12134 | 02/09/2026 | 14:54:33 | MB-L5-01Mainboard Lantai 5 | L5-AI-06 | Analog Input 6 | 3.05 | V |
| 12135 | 02/09/2026 | 14:54:33 | MB-L5-01Mainboard Lantai 5 | L5-SHT-02-RH | SHT20 2 Humidity | 48.30 | %RH |
| 12136 | 02/09/2026 | 14:54:33 | MB-L5-01Mainboard Lantai 5 | L5-LUX-04 | Illuminance / LUX 4 | 246.60 | lux |
| 12137 | 02/09/2026 | 14:54:33 | MB-L5-01Mainboard Lantai 5 | L5-AI-05 | Analog Input 5 | 3.05 | V |
| 12138 | 02/09/2026 | 14:54:33 | MB-L5-01Mainboard Lantai 5 | L5-SHT-03-T | SHT20 3 Temperature | 32.10 | °C |
| 12139 | 02/09/2026 | 14:54:33 | MB-L5-01Mainboard Lantai 5 | L5-SHT-01-T | SHT20 1 Temperature | 32.30 | °C |
| 12140 | 02/09/2026 | 14:54:33 | MB-L5-01Mainboard Lantai 5 | L5-SHT-02-T | SHT20 2 Temperature | 32.30 | °C |
| 12141 | 02/09/2026 | 14:54:33 | MB-L5-01Mainboard Lantai 5 | L5-SHT-03-RH | SHT20 3 Humidity | 49.00 | %RH |
| 12142 | 02/09/2026 | 14:54:33 | MB-L5-01Mainboard Lantai 5 | L5-AI-04 | Analog Input 4 | 3.05 | V |
| 12143 | 02/09/2026 | 14:54:33 | MB-L5-01Mainboard Lantai 5 | L5-RAD-01 | Radiation 1 | 2.00 | W/m² |
| 12144 | 02/09/2026 | 14:54:33 | MB-L5-01Mainboard Lantai 5 | L5-AI-03 | Analog Input 3 | 3.05 | V |
| 12145 | 02/09/2026 | 14:54:33 | MB-L5-01Mainboard Lantai 5 | L5-AI-02 | Analog Input 2 | 3.05 | V |
| 12146 | 02/09/2026 | 14:54:33 | MB-L5-01Mainboard Lantai 5 | L5-AI-01 | Analog Input 1 | 3.05 | V |
| 12147 | 02/09/2026 | 14:54:33 | MB-L5-01Mainboard Lantai 5 | L5-LUX-05 | Illuminance / LUX 5 | 474.80 | lux |
| 12148 | 02/09/2026 | 14:54:33 | MB-L5-01Mainboard Lantai 5 | L5-BGT-03 | Black Globe Temperature 3 | 29.90 | °C |
| 12149 | 02/09/2026 | 14:54:33 | MB-L5-01Mainboard Lantai 5 | L5-LUX-03 | Illuminance / LUX 3 | 188.50 | lux |
| 12150 | 02/09/2026 | 14:54:33 | MB-L5-01Mainboard Lantai 5 | L5-BGT-02 | Black Globe Temperature 2 | 29.90 | °C |
| 12151 | 02/09/2026 | 14:54:33 | MB-L5-01Mainboard Lantai 5 | L5-BGT-01 | Black Globe Temperature 1 | 29.90 | °C |
| 12152 | 02/09/2026 | 14:54:33 | MB-L5-01Mainboard Lantai 5 | L5-HFT-02 | Heat Flow Temperature 2 | 30.30 | °C |
| 12153 | 02/09/2026 | 14:54:33 | MB-L5-01Mainboard Lantai 5 | L5-SHT-01-RH | SHT20 1 Humidity | 48.50 | %RH |
| 12154 | 02/09/2026 | 14:54:33 | MB-L5-01Mainboard Lantai 5 | L5-HFT-01 | Heat Flow Temperature 1 | 30.30 | °C |
| 12155 | 02/09/2026 | 14:54:33 | MB-L5-01Mainboard Lantai 5 | L5-LUX-01 | Illuminance / LUX 1 | 257.60 | lux |
| 12156 | 02/09/2026 | 14:54:33 | MB-L5-01Mainboard Lantai 5 | L5-LUX-06 | Illuminance / LUX 6 | 258.50 | lux |
| 12157 | 02/09/2026 | 14:54:33 | MB-L5-01Mainboard Lantai 5 | L5-ST-02 | Surface Temperature 2 | 30.50 | °C |
| 12158 | 02/09/2026 | 14:54:32 | MB-L3-01Mainboard Lantai 3 | L3-AI-03 | Analog Input 3 | 3.12 | V |
| 12159 | 02/09/2026 | 14:54:32 | MB-L3-01Mainboard Lantai 3 | L3-SHT-02-RH | SHT20 2 Humidity | 48.40 | %RH |
| 12160 | 02/09/2026 | 14:54:32 | MB-L3-01Mainboard Lantai 3 | L3-BGT-01 | Black Globe Temperature 1 | 29.70 | °C |
| 12161 | 02/09/2026 | 14:54:32 | MB-L3-01Mainboard Lantai 3 | L3-LUX-01 | Illuminance / LUX 1 | 31.40 | lux |
| 12162 | 02/09/2026 | 14:54:32 | MB-L3-01Mainboard Lantai 3 | L3-RAD-02 | Radiation 2 | 2.00 | W/m² |
| 12163 | 02/09/2026 | 14:54:32 | MB-L3-01Mainboard Lantai 3 | L3-LUX-05 | Illuminance / LUX 5 | 43.50 | lux |
| 12164 | 02/09/2026 | 14:54:32 | MB-L3-01Mainboard Lantai 3 | L3-LUX-03 | Illuminance / LUX 3 | 124.50 | lux |
| 12165 | 02/09/2026 | 14:54:32 | MB-L3-01Mainboard Lantai 3 | L3-AI-04 | Analog Input 4 | 3.12 | V |
| 12166 | 02/09/2026 | 14:54:32 | MB-L3-01Mainboard Lantai 3 | L3-BGT-02 | Black Globe Temperature 2 | 29.80 | °C |
| 12167 | 02/09/2026 | 14:54:32 | MB-L3-01Mainboard Lantai 3 | L3-RAD-01 | Radiation 1 | 2.00 | W/m² |
| 12168 | 02/09/2026 | 14:54:32 | MB-L3-01Mainboard Lantai 3 | L3-SHT-03-RH | SHT20 3 Humidity | 49.00 | %RH |
| 12169 | 02/09/2026 | 14:54:32 | MB-L3-01Mainboard Lantai 3 | L3-ST-01 | Surface Temperature 1 | 29.90 | °C |
| 12170 | 02/09/2026 | 14:54:32 | MB-L3-01Mainboard Lantai 3 | L3-AI-05 | Analog Input 5 | 3.12 | V |
| 12171 | 02/09/2026 | 14:54:32 | MB-L3-01Mainboard Lantai 3 | L3-SHT-03-T | SHT20 3 Temperature | 31.90 | °C |
| 12172 | 02/09/2026 | 14:54:32 | MB-L3-01Mainboard Lantai 3 | L3-SHT-02-T | SHT20 2 Temperature | 32.10 | °C |
| 12173 | 02/09/2026 | 14:54:32 | MB-L3-01Mainboard Lantai 3 | L3-BGT-03 | Black Globe Temperature 3 | 29.20 | °C |
| 12174 | 02/09/2026 | 14:54:32 | MB-L3-01Mainboard Lantai 3 | L3-ST-02 | Surface Temperature 2 | 30.20 | °C |
| 12175 | 02/09/2026 | 14:54:32 | MB-L3-01Mainboard Lantai 3 | L3-AI-06 | Analog Input 6 | 3.12 | V |
| 12176 | 02/09/2026 | 14:54:32 | MB-L3-01Mainboard Lantai 3 | L3-LUX-06 | Illuminance / LUX 6 | 33.70 | lux |
| 12177 | 02/09/2026 | 14:54:32 | MB-L3-01Mainboard Lantai 3 | L3-AI-01 | Analog Input 1 | 3.12 | V |
| 12178 | 02/09/2026 | 14:54:32 | MB-L3-01Mainboard Lantai 3 | L3-HFT-01 | Heat Flow Temperature 1 | 29.70 | °C |
| 12179 | 02/09/2026 | 14:54:32 | MB-L3-01Mainboard Lantai 3 | L3-AI-02 | Analog Input 2 | 3.12 | V |
| 12180 | 02/09/2026 | 14:54:32 | MB-L3-01Mainboard Lantai 3 | L3-LUX-04 | Illuminance / LUX 4 | 83.30 | lux |
| 12181 | 02/09/2026 | 14:54:32 | MB-L3-01Mainboard Lantai 3 | L3-HFT-02 | Heat Flow Temperature 2 | 29.10 | °C |
| 12182 | 02/09/2026 | 14:54:32 | MB-L3-01Mainboard Lantai 3 | L3-SHT-01-T | SHT20 1 Temperature | 32.10 | °C |
| 12183 | 02/09/2026 | 14:54:32 | MB-L3-01Mainboard Lantai 3 | L3-LUX-02 | Illuminance / LUX 2 | 38.60 | lux |
| 12184 | 02/09/2026 | 14:54:32 | MB-L3-01Mainboard Lantai 3 | L3-SHT-01-RH | SHT20 1 Humidity | 48.70 | %RH |
| 12185 | 02/09/2026 | 14:54:31 | MB-L5-01Mainboard Lantai 5 | L5-LUX-04 | Illuminance / LUX 4 | 270.10 | lux |
| 12186 | 02/09/2026 | 14:54:31 | MB-L3-01Mainboard Lantai 3 | L3-BGT-02 | Black Globe Temperature 2 | 29.80 | °C |
| 12187 | 02/09/2026 | 14:54:31 | MB-L3-01Mainboard Lantai 3 | L3-RAD-01 | Radiation 1 | 2.00 | W/m² |
| 12188 | 02/09/2026 | 14:54:31 | MB-L5-01Mainboard Lantai 5 | L5-AI-05 | Analog Input 5 | 3.05 | V |
| 12189 | 02/09/2026 | 14:54:31 | MB-L5-01Mainboard Lantai 5 | L5-SHT-03-T | SHT20 3 Temperature | 32.30 | °C |
| 12190 | 02/09/2026 | 14:54:31 | MB-L5-01Mainboard Lantai 5 | L5-SHT-01-T | SHT20 1 Temperature | 32.30 | °C |
| 12191 | 02/09/2026 | 14:54:31 | MB-L3-01Mainboard Lantai 3 | L3-SHT-03-RH | SHT20 3 Humidity | 48.90 | %RH |
| 12192 | 02/09/2026 | 14:54:31 | MB-L5-01Mainboard Lantai 5 | L5-SHT-02-T | SHT20 2 Temperature | 32.30 | °C |
| 12193 | 02/09/2026 | 14:54:31 | MB-L5-01Mainboard Lantai 5 | L5-SHT-03-RH | SHT20 3 Humidity | 48.90 | %RH |
| 12194 | 02/09/2026 | 14:54:31 | MB-L5-01Mainboard Lantai 5 | L5-AI-04 | Analog Input 4 | 3.05 | V |
| 12195 | 02/09/2026 | 14:54:31 | MB-L3-01Mainboard Lantai 3 | L3-ST-01 | Surface Temperature 1 | 30.00 | °C |
| 12196 | 02/09/2026 | 14:54:31 | MB-L3-01Mainboard Lantai 3 | L3-AI-05 | Analog Input 5 | 3.12 | V |
| 12197 | 02/09/2026 | 14:54:31 | MB-L3-01Mainboard Lantai 3 | L3-SHT-03-T | SHT20 3 Temperature | 31.80 | °C |
| 12198 | 02/09/2026 | 14:54:31 | MB-L5-01Mainboard Lantai 5 | L5-RAD-01 | Radiation 1 | 2.00 | W/m² |
| 12199 | 02/09/2026 | 14:54:31 | MB-L5-01Mainboard Lantai 5 | L5-AI-03 | Analog Input 3 | 3.05 | V |
| 12200 | 02/09/2026 | 14:54:31 | MB-L3-01Mainboard Lantai 3 | L3-SHT-02-T | SHT20 2 Temperature | 32.10 | °C |
Menampilkan maksimal 100 data per halaman